Terminal Aerodrome Forecast
Issued by NWS Green Bay, WI

Home | Current Version | Previous Version | Graphics & Text | Print | Product List | Glossary On
Versions: 1 2 3 4 5 6 7 8 9 10 11 12 13 14 15 16 17 18 19 20 21 22 23 24 25 26 27 28 29 30 31 32 33 34 35 36 37 38 39 40 41 42 43
000
FTUS43 KGRB 300518 AAB
TAFGRB
TAF AMD
KGRB 300518Z 3005/3024 00000KT 1SM BR SCT002
      TEMPO 3006/3010 1/4SM FG VV002
     FM301500 22003KT 5SM BR BKN012
     FM301600 21005KT P6SM FEW020
     FM301800 21006KT P6SM SKC=

USA.gov is the U.S. government's official web portal to all federal, state and local government web resources and services.